User: anonymous   Login
Location: Antichan
(42.9728°N, 0.6667°E)
Time: 12:19:26
(UTC+00:00)
Language:

Cosmos 2360 Rocket - Orbit

View from above orbital plane
View from above orbital plane
View from above satellite
View from above satellite

Ground track
Ground track

The orbit data is extracted from the following two-line orbital elements,

1 25407U 98045B   20296.44197181 -.00000280 +00000-0 -11811-3 0  9995
2 25407 071.0129 350.7260 0006181 157.3845 202.7552 14.15829860149058
Epoch (UTC): 22 October 2020 10:36:26
Eccentricity: 0.0006181
inclination: 71.0129°
perigee height: 835 km
apogee height: 844 km
right ascension of ascending node: 350.7260°
argument of perigee: 157.3845°
revolutions per day: 14.15829860
mean anomaly at epoch: 202.7552°
orbit number at epoch: 14905

The dashed part of the orbit path shows where the satellite is in the earth's shadow,  

DLR